Regional Weather Roundup
Issued by NWS

Home | Current Version | Previous Version | Text Only | Print | Product List | Glossary Off
Versions: 1 2 3 4 5 6 7 8 9 10 11 12 13 14 15 16 17 18 19 20 21 22 23 24 25 26 27 28 29 30 31 32 33 34 35 36 37 38 39 40 41 42 43 44 45 46 47 48 49 50

000
ASUS43 KIND 041009
RWRIN

WEATHER ROUNDUP FOR INDIANA
NATIONAL WEATHER SERVICE INDIANAPOLIS IN
600 AM EDT MON MAY 04 2015

NOTE: "FAIR" INDICATES FEW OR NO CLOUDS BELOW 12,000 FEET WITH NO
SIGNIFICANT WEATHER AND/OR OBSTRUCTIONS TO VISIBILITY.

* - STATION DOES NOT REPORT WEATHER SUCH AS PRECIPITATION OR FOG.

+ - STATION NOT QUALITY CONTROLLED BY THE NATIONAL WEATHER SERVICE.
    USE DATA WITH CAUTION...ESPECIALLY DEWPOINT AND RELATIVE
    HUMIDITY OBSERVATIONS.

INZ001>003-010>013-019-020-041100-
NORTHWEST INDIANA

CITY           SKY/WX    TMP DP  RH WIND       PRES   REMARKS
GARY /AIRPORT/ CLOUDY    66 N/A N/A W12       29.96R
KNOX *+        CLOUDY    63  27  25 SW15      29.99R
LA PORTE +     CLOUDY    66  47  49 SW16      29.97F
MICHIGAN CITY+ CLOUDY    63  41  45 SW10      29.96S
MONTICELLO +   CLOUDY    64  48  57 S10G17    29.99S
VALPARAISO     CLOUDY    63  49  60 SW10      29.98R

$$

LMZ046-743>745-041100-
SOUTHERN LAKE MICHIGAN

STATION/POSITION TIME  TEMP    WIND        PRES    WAVE
                       AIR SEA DIR/SP/G            HT
                 (UTC) (F)     (DEG/KT/KT) (MB)    (FT)
BURNS HARBOR     1000   66     220/ 14/ 24 1014.9R
MICHIGAN CITY    1000   66     200/ 19/ 23   N/A
5NW MICH CITY    1000   58 50  240/ 14/ 17   N/A     2

$$

INZ004-005-014>016-021>024-041100-
NORTH CENTRAL INDIANA

CITY           SKY/WX    TMP DP  RH WIND       PRES   REMARKS
GOSHEN         CLOUDY    67  46  47 S17G24    29.98F
LOGANSPORT +   CLOUDY    59  45  58 S10       30.02S
PERU/GRISSOM   CLOUDY    63  49  60 SW14      30.01S
ROCHESTER +    MOCLDY    64  46  52 SW10      30.00S
SOUTH BEND     LGT RAIN  67  46  47 SW18G25   29.97R
WARSAW +       MOCLDY    64  46  52 S8        30.00S

$$

INZ006>009-017-018-025>027-041100-
NORTHEAST INDIANA

CITY           SKY/WX    TMP DP  RH WIND       PRES   REMARKS
ANGOLA *+      MOCLDY    61  48  63 S8        30.00F
AUBURN +       MOCLDY    63  46  55 S7        30.03S
FORT WAYNE     CLOUDY    59  49  69 S10       30.04S
HUNTINGTON +   PTCLDY    61  48  62 S6        30.03S

$$

INZ028-029-035-036-043>045-051>053-041100-
WEST CENTRAL INDIANA

CITY           SKY/WX    TMP DP  RH WIND       PRES   REMARKS
CRAWFORDSVL +  MOCLDY    58  43  56 S10       30.04S
GREENCASTLE +  PTCLDY    63  43  48 SW5       30.06S
LAFAYETTE      MOCLDY    62  47  57 SW6       30.01S
TERRE HAUTE    MOCLDY    61  49  64 S9        30.05S

$$

INZ030>032-037>040-046>048-054>057-064-065-041100-
CENTRAL INDIANA

CITY           SKY/WX    TMP DP  RH WIND       PRES   REMARKS
CP ATTERBURY + CLEAR     50  46  87 CALM      30.09F
FISHERS *+     PTCLDY    55  50  82 S6        30.07
FRANKFORT +    PTCLDY    59  49  69 S6        30.05S
GREENWOOD *+   CLEAR     57  48  72 S8        30.08
INDIANAPOLIS   MOCLDY    59  47  64 S8        30.05F
-EAGLE CREEK   PTCLDY    58  48  69 CALM      30.06S
MARION +       PTCLDY    58  47  65 S12       30.05S
MT COMFORT *+  PTCLDY    57  41  54 S8        30.07F
SHELBYVILLE    CLEAR     60  49  66 S8        30.08S
ZIONSVILLE +   PTCLDY    59  47  63 S8        30.06S

$$

INZ033-034-041-042-049-050-058-059-041100-
EAST CENTRAL INDIANA

CITY           SKY/WX    TMP DP  RH WIND       PRES   REMARKS
MUNCIE         PTCLDY    61  48  62 S8        30.06F

$$

INZ060-061-067>069-081>083-085>088-041100-
SOUTHWEST INDIANA

CITY           SKY/WX    TMP DP  RH WIND       PRES   REMARKS
EVANSVILLE     PTCLDY    60  52  74 CALM      30.09F
HUNTINGBURG *+ PTCLDY    61  48  63 S5        30.11S
WASHINGTON +   PTCLDY    59  47  62 S9        30.07F

$$

INZ062-063-066-070>080-084-089>092-041100-
SOUTH CENTRAL AND SOUTHEAST INDIANA

CITY           SKY/WX    TMP DP  RH WIND       PRES   REMARKS
BLOOMINGTON    CLEAR     57  48  72 S6        30.08F
MADISON *+     CLEAR     54  48  82 CALM      30.14R
NORTH VERNON + CLEAR     55  48  76 CALM      30.12R
SEYMOUR +      CLEAR     54  48  82 SE5       30.10R

$$



USA.gov is the U.S. government's official web portal to all federal, state and local government web resources and services.